Weather History for KOLY - May, 2014

Change the Weather History Date:

Thursday, May 15, 2014

  Actual Average (KEVV) Record (KEVV)
Temperature  
Mean Temperature 52 °F 65 °F  
Max Temperature 60 °F 77 °F 92 °F (1988)
Min Temperature 44 °F 54 °F 38 °F (1977)
Degree Days  
Heating Degree Days 13 3  
Month to date heating degree days 58  
Since 1 July heating degree days 4513  
Cooling Degree Days 0 3  
Month to date cooling degree days 32  
Year to date cooling degree days 59  
Growing Degree Days 2 (Base 50)    
Moisture  
Dew Point 44 °F    
Average Humidity 82    
Maximum Humidity 100    
Minimum Humidity 48    
Precipitation  
Precipitation 0.00 in 0.17 in 1.75 in (1923)
Month to date precipitation 2.63  
Year to date precipitation 17.51  
Snow  
Snow 0.00 in 0.00 in 0.00 in (2002)
Month to date snowfall 0.0  
Since 1 July snowfall 11.8  
Snow Depth -    
Sea Level Pressure  
Sea Level Pressure 30.02 in    
Wind  
Wind Speed 11 mph (WNW)    
Max Wind Speed 22 mph    
Max Gust Speed 29 mph    
Visibility 9 miles    
Events Rain , Thunderstorm    
T = Trace of Precipitation, MM = Missing Value Source: NWS Daily Summary

Daily Weather History Graph

Daily Weather History Graph

Search for Another Location

Airport or City:

Trip Planner

Search our weather history database for the weather conditions in past years. The results will help you decide how hot, cold, wet, or windy it might be!

Date:

Astronomy

May. 15, 2014 Rise Set
Actual Time 5:40 AM CDT 7:58 PM CDT
Civil Twilight 5:10 AM CDT 8:28 PM CDT
Nautical Twilight 4:33 AM CDT 9:04 PM CDT
Astronomical Twilight 3:53 AM CDT 9:45 PM CDT
Moon 9:05 PM CDT (5/15) 6:27 AM CDT (5/15)
Length of Visible Light 15h 17m
Length of Day
14h 17m
Full, 99% of the Moon is Illuminated
May 15
Full
May 21
Last Quarter
May 28
New
Jun 5
First Quarter
Jun 12
Full

Hourly Weather History & Observations

Time (CDT) Temp. Windchill Dew Point Humidity Pressure Visibility Wind Dir Wind Speed Gust Speed Precip Events Conditions
12:15 AM 46.4 °F 40.7 °F 44.6 °F 93% 29.94 in 5.0 mi NW 12.7 mph 21.9 mph N/A   Overcast
12:35 AM 46.4 °F 40.1 °F 44.6 °F 93% 29.95 in 5.0 mi NW 15.0 mph 20.7 mph N/A   Overcast
12:55 AM 46.4 °F 40.4 °F 44.6 °F 93% 29.94 in 5.0 mi NW 13.8 mph 20.7 mph N/A   Overcast
1:15 AM 46.4 °F 40.7 °F 44.6 °F 93% 29.94 in 10.0 mi NW 12.7 mph 20.7 mph N/A   Overcast
1:35 AM 46.4 °F 40.7 °F 44.6 °F 93% 29.94 in 4.0 mi NW 12.7 mph 21.9 mph N/A Rain Light Rain
1:55 AM 44.6 °F 38.4 °F 44.6 °F 100% 29.94 in 4.0 mi NW 12.7 mph - N/A   Light Drizzle
2:15 AM 44.6 °F 38.4 °F 44.6 °F 100% 29.94 in 5.0 mi NW 12.7 mph 19.6 mph N/A   Light Drizzle
2:35 AM 44.6 °F 38.4 °F 44.6 °F 100% 29.94 in 4.0 mi NW 12.7 mph 17.3 mph N/A   Light Drizzle
2:55 AM 44.6 °F 37.4 °F 44.6 °F 100% 29.94 in 10.0 mi WNW 16.1 mph 19.6 mph N/A   Overcast
3:15 AM 44.6 °F 37.8 °F 42.8 °F 93% 29.94 in 10.0 mi WNW 15.0 mph - N/A   Overcast
3:35 AM 44.6 °F 37.4 °F 42.8 °F 93% 29.95 in 10.0 mi WNW 16.1 mph - N/A   Overcast
3:55 AM 44.6 °F 37.4 °F 44.6 °F 100% 29.95 in 7.0 mi WNW 16.1 mph - N/A   Overcast
4:15 AM 44.6 °F 36.9 °F 42.8 °F 93% 29.96 in 7.0 mi NW 18.4 mph 24.2 mph N/A   Overcast
4:35 AM 44.6 °F 38.4 °F 42.8 °F 93% 29.96 in 7.0 mi WNW 12.7 mph - N/A   Overcast
4:55 AM 44.6 °F 38.4 °F 42.8 °F 93% 29.96 in 10.0 mi WNW 12.7 mph - N/A   Overcast
5:15 AM 44.6 °F 38.4 °F 42.8 °F 93% 29.97 in 10.0 mi WNW 12.7 mph 18.4 mph N/A   Overcast
5:35 AM 44.6 °F 38.8 °F 42.8 °F 93% 29.98 in 10.0 mi WNW 11.5 mph 17.3 mph N/A   Overcast
5:55 AM 44.6 °F 38.8 °F 42.8 °F 93% 29.98 in 7.0 mi WNW 11.5 mph - N/A Rain Rain
6:15 AM 44.6 °F 39.2 °F 42.8 °F 93% 29.98 in 2.5 mi WNW 10.4 mph - N/A Rain Light Rain
6:35 AM 44.6 °F 40.2 °F 42.8 °F 93% 29.99 in 10.0 mi West 8.1 mph - N/A   Overcast
6:55 AM 44.6 °F 39.7 °F 42.8 °F 93% 30.00 in 10.0 mi West 9.2 mph - N/A   Overcast
7:15 AM 44.6 °F 39.2 °F 44.6 °F 100% 30.01 in 7.0 mi WNW 10.4 mph - N/A   Drizzle
7:35 AM 46.4 °F 40.1 °F 44.6 °F 93% 30.01 in 3.0 mi WNW 15.0 mph 19.6 mph N/A   Drizzle
7:55 AM 44.6 °F 39.2 °F 44.6 °F 100% 30.02 in 3.0 mi WNW 10.4 mph - N/A   Light Drizzle
8:15 AM 46.4 °F 41.1 °F 44.6 °F 93% 30.02 in 10.0 mi WNW 11.5 mph 16.1 mph N/A   Overcast
8:35 AM 46.4 °F 40.7 °F 44.6 °F 93% 30.03 in 10.0 mi WNW 12.7 mph - N/A   Overcast
8:55 AM 46.4 °F 40.1 °F 42.8 °F 87% 30.03 in 10.0 mi NW 15.0 mph 21.9 mph N/A   Overcast
9:15 AM 48.2 °F - 44.6 °F 87% 30.04 in 10.0 mi NW 13.8 mph - N/A   Overcast
9:35 AM 50.0 °F - 44.6 °F 82% 30.04 in 10.0 mi NW 12.7 mph - N/A   Overcast
9:55 AM 50.0 °F - 42.8 °F 76% 30.05 in 10.0 mi WNW 15.0 mph 20.7 mph N/A   Overcast
10:15 AM 50.0 °F - 42.8 °F 76% 30.05 in 10.0 mi WNW 11.5 mph - N/A   Overcast
10:35 AM 51.8 °F - 44.6 °F 76% 30.06 in 10.0 mi WNW 12.7 mph - N/A   Overcast
10:55 AM 51.8 °F - 44.6 °F 76% 30.06 in 10.0 mi WNW 15.0 mph 21.9 mph N/A   Overcast
11:15 AM 51.8 °F - 44.6 °F 76% 30.07 in 10.0 mi WNW 20.7 mph 25.3 mph N/A   Overcast
11:35 AM 53.6 °F - 44.6 °F 72% 30.07 in 10.0 mi NW 12.7 mph 23.0 mph N/A   Overcast
12:35 PM 55.4 °F - 44.6 °F 67% 30.07 in 10.0 mi WNW 11.5 mph - N/A   Mostly Cloudy
12:55 PM 55.4 °F - 42.8 °F 63% 30.07 in 10.0 mi WNW 15.0 mph 19.6 mph N/A   Mostly Cloudy
1:15 PM 55.4 °F - 44.6 °F 67% 30.06 in 10.0 mi WNW 8.1 mph - N/A   Overcast
1:35 PM 55.4 °F - 42.8 °F 63% 30.06 in 10.0 mi WNW 8.1 mph - N/A   Overcast
2:15 PM 55.4 °F - 42.8 °F 63% 30.06 in 10.0 mi West 5.8 mph - N/A   Overcast
2:35 PM 57.2 °F - 42.8 °F 59% 30.05 in 10.0 mi Calm Calm - N/A   Mostly Cloudy
2:55 PM 55.4 °F - 42.8 °F 63% 30.05 in 10.0 mi Calm Calm - N/A   Mostly Cloudy
3:15 PM 57.2 °F - 42.8 °F 59% 30.04 in 10.0 mi Calm Calm - N/A   Overcast
3:35 PM 59.0 °F - 41.0 °F 51% 30.03 in 10.0 mi Calm Calm - N/A   Overcast
3:55 PM 59.0 °F - 42.8 °F 55% 30.03 in 10.0 mi Calm Calm - N/A   Scattered Clouds
4:15 PM 59.0 °F - 42.8 °F 55% 30.02 in 10.0 mi Calm Calm - N/A   Mostly Cloudy
4:35 PM 60.8 °F - 42.8 °F 52% 30.02 in 10.0 mi Calm Calm - N/A Thunderstorm Mostly Cloudy
4:55 PM 60.8 °F - 41.0 °F 48% 30.01 in 10.0 mi Calm Calm - N/A   Mostly Cloudy
5:15 PM 60.8 °F - 41.0 °F 48% 30.01 in 10.0 mi Calm Calm - N/A   Mostly Cloudy
5:35 PM 59.0 °F - 41.0 °F 51% 30.00 in 10.0 mi Calm Calm - N/A   Mostly Cloudy
5:55 PM 59.0 °F - 41.0 °F 51% 30.00 in 10.0 mi Calm Calm - N/A Thunderstorm Mostly Cloudy
6:15 PM 59.0 °F - 41.0 °F 51% 30.01 in 10.0 mi Calm Calm - N/A   Overcast
6:35 PM 59.0 °F - 42.8 °F 55% 30.01 in 10.0 mi Calm Calm - N/A   Overcast
6:55 PM 59.0 °F - 44.6 °F 59% 30.01 in 10.0 mi Calm Calm - N/A   Overcast
7:15 PM 51.8 °F - 46.4 °F 82% 30.03 in 10.0 mi WNW 21.9 mph 28.8 mph N/A Rain Light Rain
7:35 PM 50.0 °F - 46.4 °F 87% 30.04 in 5.0 mi West 16.1 mph 25.3 mph N/A Rain Heavy Rain
7:55 PM 50.0 °F - 46.4 °F 87% 30.05 in 10.0 mi West 8.1 mph - N/A Rain Light Rain
8:15 PM 48.2 °F - 46.4 °F 93% 30.06 in 7.0 mi West 9.2 mph - N/A Rain Rain
8:35 PM 48.2 °F - 46.4 °F 93% 30.06 in 10.0 mi WNW 8.1 mph - N/A Rain Light Rain
8:55 PM 48.2 °F - 46.4 °F 93% 30.05 in 10.0 mi WNW 9.2 mph - N/A Rain Light Rain
9:15 PM 48.2 °F - 46.4 °F 93% 30.06 in 10.0 mi NW 4.6 mph - N/A Rain Light Rain
9:35 PM 48.2 °F - 46.4 °F 93% 30.06 in 10.0 mi Calm Calm - N/A Rain Light Rain
9:55 PM 48.2 °F - 46.4 °F 93% 30.06 in 10.0 mi Calm Calm - N/A   Overcast
10:15 PM 48.2 °F - 46.4 °F 93% 30.07 in 10.0 mi Calm Calm - N/A   Mostly Cloudy
10:35 PM 48.2 °F - 46.4 °F 93% 30.07 in 10.0 mi Calm Calm - N/A   Scattered Clouds
10:55 PM 48.2 °F - 46.4 °F 93% 30.06 in 10.0 mi Calm Calm - N/A   Clear
11:15 PM 48.2 °F - 46.4 °F 93% 30.06 in 10.0 mi Calm Calm - N/A   Clear
11:35 PM 46.4 °F - 46.4 °F 100% 30.06 in 10.0 mi Calm Calm - N/A   Clear
11:55 PM 46.4 °F - 46.4 °F 100% 30.05 in 10.0 mi Calm Calm - N/A   Clear